EHI
0 0 0 0 0 0 0 0 0 0 0 0 0 0 0 0 0 0 0 0 0 0 0 0 0 0 0 0 0 1 2 2 1 0 0 0 0 1 2 4 6 6 5 4 3 1 0 0 0
0 0 0 0 0 0 0 0 0 0 0 0 0 0 0 0 0 0 0 0 0 0 0 0 0 0 0 0 0 1 3 2 1 0 0 0 0 1 1 3 4 4 3 2 1 0 0 0 0
0 0 0 0 0 0 0 0 0 0 0 0 0 0 0 0 0 0 0 0 0 0 0 0 0 0 1 0 0 2 3 3 1 0 0 0 0 0 0 1 3 3 1 0 0 0 0 0 0
0 0 0 0 0 0 0 0 0 0 0 0 0 0 0 0 0 0 0 0 0 0 0 0 0 0 0 0 0 1 3 3 2 0 0 0 0 0 0 1 2 2 1 0 0 0 0 0 0
0 0 0 0 0 0 0 0 0 0 0 0 0 0 0 0 0 0 0 0 0 0 0 0 0 0 0 0 0 1 2 3 2 1 0 0 0 0 0 0 1 1 0 0 0 1 0 0 1
0 0 0 0 0 0 0 0 0 0 0 0 0 0 0 0 0 0 0 0 0 0 0 0 0 0 0 0 0 1 1 2 3 3 1 0 0 0 0 0 0 0 0 0 1 3 2 1 2
0 0 0 0 0 0 0 0 0 0 0 0 0 0 0 0 0 0 0 0 0 0 0 0 0 0 0 0 0 1 1 2 3 2 1 0 0 0 0 0 0 0 0 0 2 3 2 2 2
0 0 0 0 0 0 0 0 0 0 0 0 0 0 0 0 0 0 0 0 0 0 0 0 0 0 0 0 0 0 0 1 1 1 0 0 0 0 0 0 0 0 0 1 2 3 2 2 2
0 0 0 0 0 0 0 0 0 0 0 0 0 0 0 0 0 0 0 0 0 0 0 0 0 0 0 0 0 0 0 0 0 0 0 0 0 0 0 0 0 0 0 1 2 2 1 1 1
0 0 0 0 0 0 0 0 0 0 0 0 0 0 0 0 0 0 0 0 0 0 0 0 0 0 0 0 0 0 0 0 0 0 0 0 0 0 0 0 0 0 0 0 1 1 0 0 0
0 0 0 0 0 0 0 0 0 0 0 0 0 0 0 0 0 0 0 0 0 0 0 0 0 0 0 0 0 0 0 0 0 0 0 0 0 0 0 0 0 0 0 0 0 0 0 0 0
0 0 0 0 0 0 0 0 0 0 0 0 0 0 0 0 0 0 0 0 0 0 0 0 0 0 0 0 0 0 0 0 0 0 0 0 0 0 0 0 0 0 0 0 0 0 0 0 0
0 0 0 0 0 0 0 0 0 0 0 1 1 0 0 0 0 0 0 0 0 0 0 0 0 0 0 0 0 0 0 0 0 0 0 0 0 0 0 0 0 0 0 0 0 0 0 0 0
0 0 0 0 0 0 0 0 0 0 1 2 2 1 0 0 0 0 0 0 0 0 0 0 0 0 0 0 0 0 0 0 0 0 0 0 0 0 0 0 0 0 0 0 0 0 0 0 0
0 0 0 0 0 0 0 0 0 1 2 3 2 1 0 0 0 0 0 0 0 0 0 0 0 0 0 0 0 0 0 0 0 0 0 0 0 0 0 0 0 0 0 0 0 0 0 0 0
0 0 0 0 0 0 0 0 0 1 2 2 2 1 0 0 0 0 0 0 0 0 0 0 0 0 0 0 0 0 0 0 0 0 0 0 0 0 0 0 0 0 0 0 0 0 0 0 0
0 0 0 0 0 0 0 0 0 0 1 1 1 0 0 0 0 0 0 0 0 0 0 0 0 0 0 0 0 0 0 0 0 0 0 0 0 0 0 0 0 0 0 0 0 0 0 0 0
0 0 0 0 0 0 0 0 0 0 0 0 0 0 0 0 0 0 0 0 0 0 0 0 0 0 0 0 0 0 0 0 0 0 0 0 0 0 0 0 0 0 0 0 0 0 0 0 0
0 0 0 0 0 0 0 0 0 0 0 0 0 0 0 0 0 0 0 0 0 0 0 0 0 0 0 0 0 0 0 0 0 0 0 0 0 0 0 0 0 0 0 0 0 0 0 0 0
0 0 0 0 0 0 0 0 0 0 0 0 0 0 0 0 0 0 0 0 0 0 0 0 0 0 0 0 0 0 0 0 0 0 0 0 0 0 0 0 0 0 0 0 0 0 0 0 0
0 0 0 0 0 0 0 0 0 0 0 0 0 0 0 0 0 0 0 0 0 0 0 0 0 0 0 0 0 0 0 0 0 0 0 0 0 0 0 0 0 0 0 0 0 0 0 0 0
0 0 0 0 0 0 0 0 0 0 0 0 0 0 0 0 0 0 0 0 0 0 0 0 0 0 0 0 0 0 0 0 0 0 0 0 0 0 0 0 0 0 0 0 0 0 0 0 0
0 0 0 0 0 0 0 0 0 0 0 0 0 0 0 0 0 0 0 0 0 0 0 0 0 0 0 0 0 0 0 0 0 0 0 0 0 0 0 0 0 0 0 0 0 0 0 0 0
0 0 0 0 0 0 0 0 0 0 0 0 0 0 0 0 0 0 0 0 0 0 0 0 0 0 0 0 0 0 0 0 0 0 0 0 0 0 0 0 0 0 0 0 0 0 0 0 0
0 0 0 0 0 0 0 0 0 0 0 0 0 0 0 0 0 0 0 0 0 0 0 0 0 0 0 0 0 0 0 0 0 0 0 0 0 0 0 0 0 0 0 0 0 0 0 0 0
0 0 0 0 0 0 0 0 0 0 0 0 0 0 0 0 0 0 0 0 0 0 0 0 0 0 0 0 0 0 0 0 0 0 0 0 0 0 0 0 0 0 0 0 0 0 0 0 0
0 0 0 0 0 0 0 0 0 0 0 0 0 0 0 0 0 0 0 0 0 0 0 0 0 0 0 0 0 0 0 0 0 0 0 0 0 0 0 0 0 0 0 0 0 0 0 0 0
0 0 0 0 0 0 0 0 0 0 0 0 0 0 0 0 0 0 0 0 0 0 0 0 0 0 0 0 0 0 0 0 0 0 0 0 0 0 0 0 0 0 0 0 0 0 0 0 0
0 0 0 0 0 0 0 0 0 0 0 0 0 0 0 0 0 0 0 0 0 0 0 0 0 0 0 0 0 0 0 0 0 0 0 0 0 0 0 0 0 0 0 0 0 0 0 0 0
0 0 0 0 0 0 0 0 0 0 0 0 0 0 0 0 0 0 0 0 0 0 0 0 0 0 0 0 0 0 0 0 0 0 0 0 0 0 0 0 0 0 0 0 0 0 0 0 0
Wind_Speed
2 3 3 3 6 6 4 3 1 2 3 2 4 6 5 4 2 2 1 1 1 1 2 2 4 6 7 7 7 8 8 8 8 8 8 9 9 9 9 10 10 9 9 9 9 8 8 9 9
1 2 4 5 6 4 3 2 2 2 3 3 4 5 5 4 2 2 0 1 1 2 2 2 5 6 6 7 7 8 8 9 8 8 8 9 9 9 9 9 9 9 9 9 9 8 8 8 9
1 3 4 5 4 3 2 1 2 3 4 2 4 4 4 2 1 1 1 1 2 2 2 2 5 6 6 7 7 8 8 8 8 8 8 8 8 8 9 9 9 8 8 8 8 7 7 8 8
3 4 5 6 5 1 1 1 2 4 4 5 3 4 3 3 1 2 2 2 3 2 2 1 5 6 6 6 7 7 7 8 7 7 7 7 7 7 8 8 8 8 8 8 8 8 8 8 8
4 5 6 4 3 2 1 1 2 3 3 3 3 4 3 4 3 4 3 3 2 2 3 2 4 5 6 6 6 6 7 7 7 7 7 7 7 7 7 7 8 8 8 8 8 7 8 8 8
5 5 5 3 2 2 2 1 3 4 3 3 4 3 1 2 3 3 3 2 2 2 3 3 3 4 5 5 6 7 7 7 7 7 7 7 7 7 7 7 8 8 8 8 7 7 8 8 8
5 5 4 3 1 2 1 2 3 3 3 2 3 4 1 0 1 2 2 2 2 3 3 4 4 4 4 4 5 6 6 7 7 7 7 7 6 6 6 7 7 7 7 7 7 7 8 8 9
4 5 3 2 2 0 0 2 2 3 3 2 3 5 3 3 3 3 3 2 2 2 3 3 4 4 4 3 4 5 5 5 6 6 7 7 7 7 7 6 6 7 7 7 7 8 8 8 9
4 6 2 2 3 1 1 2 2 2 4 2 2 2 3 6 6 4 3 2 2 1 1 2 2 3 3 3 4 5 5 5 5 5 7 7 5 4 4 5 6 6 7 7 8 8 8 9 9
5 4 2 2 3 3 2 2 3 3 3 2 3 3 5 6 5 4 3 2 1 1 1 1 1 2 2 2 3 3 3 3 3 3 4 3 3 3 4 6 7 7 7 7 8 9 8 7 4
3 3 1 1 2 3 3 2 2 5 2 4 5 5 5 5 4 4 3 2 2 1 1 0 0 1 1 1 2 1 2 2 3 3 3 3 3 3 3 3 4 5 6 4 6 6 4 4 3
3 1 1 1 2 3 3 3 3 3 3 4 6 7 6 6 5 5 4 3 2 1 1 0 1 0 0 1 1 1 1 1 1 2 2 2 2 2 2 2 2 3 2 3 3 3 4 4 5
3 1 1 1 2 2 3 2 2 1 1 5 6 6 6 6 4 3 3 3 3 2 2 1 1 1 1 1 0 1 1 1 1 1 2 2 2 2 2 2 2 2 2 2 3 3 4 4 5
1 2 2 1 2 1 3 1 2 1 3 5 6 5 5 5 4 3 2 3 3 3 2 1 2 2 2 1 1 0 1 1 1 1 1 2 2 2 2 2 2 2 2 2 3 4 4 4 4
3 3 3 2 1 1 4 2 2 3 5 5 5 4 4 4 4 4 4 4 4 3 2 2 2 2 2 2 1 1 1 1 1 1 1 2 2 2 2 2 2 2 2 3 3 4 4 4 4
3 4 2 3 0 1 3 3 4 3 6 5 4 4 3 3 4 3 3 3 3 3 3 3 2 3 2 2 2 1 1 2 1 1 2 2 2 3 3 2 2 2 3 3 3 3 4 4 4
4 1 1 3 1 2 3 4 4 3 6 6 5 4 4 3 3 3 3 3 4 4 4 3 2 3 3 3 3 2 2 2 1 1 1 2 2 3 3 2 2 3 3 3 3 3 3 4 4
2 1 1 3 2 2 2 5 4 3 6 6 5 4 4 5 5 3 3 3 4 3 3 3 3 3 3 3 3 2 3 2 2 2 1 2 2 3 3 3 3 3 3 3 3 4 3 3 3
2 2 2 4 2 2 4 6 5 3 4 5 5 6 6 6 3 2 3 4 4 3 3 3 3 3 3 2 2 2 1 1 1 1 2 2 2 3 3 3 2 3 3 3 4 4 4 2 2
2 1 2 3 0 2 2 5 5 3 6 7 8 8 7 5 2 3 4 4 4 3 3 3 3 3 2 2 2 2 2 1 1 1 2 2 2 2 3 3 2 3 3 4 3 3 3 1 1
1 3 3 2 2 3 2 5 4 3 2 3 4 5 6 8 7 6 5 4 4 4 4 4 4 3 2 3 3 3 3 2 2 2 1 1 1 2 3 3 3 3 3 3 3 3 4 2 1
3 4 3 2 2 2 1 3 6 4 3 3 5 5 6 7 6 6 6 6 5 5 4 3 4 3 3 3 3 3 2 1 1 0 0 1 1 1 2 3 3 3 2 3 3 3 2 3 2
3 1 2 1 2 1 2 0 8 3 4 6 6 6 7 7 8 8 7 7 5 4 4 4 3 3 3 3 3 3 2 1 1 1 1 1 1 1 1 2 2 2 2 3 3 3 3 2 2
3 5 5 5 4 1 2 2 6 3 5 5 5 5 5 6 7 6 5 5 4 4 4 4 4 3 3 3 3 4 3 2 2 1 1 1 1 1 1 1 2 2 2 2 2 3 3 2 2
4 5 4 4 3 4 2 2 7 6 5 5 5 5 5 6 6 6 6 6 5 5 5 4 5 3 3 3 3 3 3 3 3 2 2 1 0 0 0 1 1 1 2 2 2 3 2 2 2
3 7 6 3 3 4 2 4 7 5 4 3 2 2 4 5 6 7 8 7 7 7 6 5 5 4 4 4 3 3 3 2 2 2 2 2 1 1 1 2 2 2 2 2 2 2 1 2 2
4 3 5 6 1 1 4 6 8 2 4 4 3 2 2 4 6 6 6 7 7 7 7 7 6 4 4 4 3 3 3 2 2 2 1 1 1 1 2 2 2 2 2 2 3 2 2 2 2
4 7 5 5 3 2 5 4 4 5 3 2 1 1 2 2 4 5 6 7 7 7 6 5 5 5 4 4 3 3 3 3 2 2 2 1 1 1 2 2 2 2 2 2 2 2 2 2 1
3 3 4 4 4 5 2 6 6 6 4 3 3 3 3 4 5 5 4 5 6 5 5 5 5 4 4 4 3 3 2 2 3 2 2 2 1 1 2 2 3 3 2 2 3 2 2 2 2
3 4 6 4 3 3 3 8 5 3 3 3 3 2 2 3 4 4 4 4 5 6 5 5 5 5 4 4 4 3 2 3 3 2 2 2 2 2 2 2 2 2 2 2 2 2 2 2 2
Wind_Direction
59 82 84 61 54 53 51 9 27 50 53 39 57 73 80 64 63 111 292 9 75 64 36 70 86 89 93 99 99 96 95 97 99 99 98 99 100 99 103 103 100 97 95 90 84 84 88 90 92
89 87 58 59 73 66 28 355 52 66 133 132 68 67 71 66 62 96 3 2 69 78 54 76 94 92 95 100 100 96 93 94 95 98 102 101 101 100 100 101 102 100 97 93 87 82 85 86 88
100 61 73 65 74 108 111 14 98 80 80 74 70 55 65 62 79 139 230 112 74 64 49 90 104 98 94 96 97 97 95 96 99 99 100 100 102 101 100 101 102 100 97 96 93 84 82 84 84
77 46 54 64 68 53 147 161 129 109 65 48 79 64 52 19 98 147 121 97 81 52 28 65 105 104 99 99 100 99 96 96 98 95 97 100 102 103 101 102 99 96 93 93 90 84 79 83 82
62 70 60 54 43 12 15 65 103 82 65 52 78 82 40 0 71 106 107 93 85 44 20 34 100 103 105 106 105 102 95 92 92 95 96 97 96 99 100 97 93 90 87 84 81 77 78 81 82
56 64 76 71 37 14 5 29 85 74 83 82 87 91 41 17 88 117 107 90 81 61 29 21 77 100 106 113 109 102 95 88 85 88 90 95 95 95 94 94 90 86 84 80 76 75 81 81 80
93 82 94 110 75 28 40 53 87 92 84 97 118 102 69 1 128 118 104 84 65 53 40 21 22 39 65 94 101 98 90 84 79 81 84 86 86 86 86 90 91 89 86 81 77 76 76 77 78
110 94 83 98 114 71 22 69 84 96 103 107 115 134 185 196 139 108 89 72 61 50 34 22 28 31 32 41 68 81 81 79 77 71 72 68 61 61 69 73 79 82 79 78 77 71 72 72 77
81 75 105 171 161 174 140 96 68 68 96 75 70 148 167 131 124 110 84 54 37 40 17 21 34 30 28 31 45 48 56 60 61 58 59 55 41 37 42 60 73 74 72 71 74 69 66 64 68
77 98 184 199 175 158 140 124 135 91 73 67 64 64 102 118 132 137 142 158 179 262 302 9 20 20 20 33 42 36 40 44 48 49 49 48 42 34 40 44 59 60 61 59 66 64 60 58 51
86 131 162 112 151 138 128 118 120 124 147 191 171 156 139 139 151 163 176 186 209 229 250 191 329 16 34 32 36 34 35 39 41 44 50 50 46 41 41 37 36 42 49 48 56 54 49 53 56
83 58 132 147 132 126 140 131 120 163 203 190 168 157 155 165 180 187 191 198 191 186 233 218 150 118 37 56 42 43 49 53 48 40 56 60 53 51 47 41 37 43 47 50 55 62 57 59 61
77 47 35 73 88 113 109 111 136 212 122 123 134 148 169 181 192 199 189 181 177 191 219 206 166 170 147 101 60 76 62 76 71 59 64 84 82 69 64 52 47 49 54 58 67 70 69 67 64
111 82 43 42 64 64 107 78 98 237 133 131 150 176 192 196 195 185 180 182 188 198 199 181 176 178 146 131 131 107 87 94 83 73 84 102 99 91 83 69 62 58 61 66 76 81 79 72 71
85 65 23 356 75 112 98 13 234 212 147 152 174 192 204 212 201 198 196 188 188 196 187 173 178 151 138 134 137 101 88 93 94 82 85 102 107 105 101 89 75 71 79 84 81 76 73 75 72
59 58 8 298 189 140 120 261 262 175 157 179 192 201 202 209 211 211 196 179 175 171 169 177 161 138 132 120 108 92 83 90 92 92 90 98 111 116 108 100 90 90 89 87 89 81 79 72 71
35 51 281 297 243 145 153 249 271 175 173 192 200 206 208 212 224 220 196 173 167 165 158 156 141 133 128 110 91 79 73 69 60 75 86 94 104 111 107 103 103 101 94 90 100 82 88 90 81
225 222 268 266 266 149 207 255 274 192 188 203 207 209 211 213 223 206 180 161 151 144 139 140 126 123 118 97 82 65 55 45 46 61 78 96 99 104 104 100 100 102 100 89 93 92 76 85 87
165 177 263 265 243 173 232 261 271 220 205 215 216 215 219 225 227 180 162 148 131 125 131 142 140 140 127 110 104 92 71 36 41 48 62 83 103 113 111 108 101 102 109 117 120 109 93 81 93
155 195 283 301 342 164 260 285 283 232 215 214 211 211 214 219 198 179 163 153 149 153 156 153 154 157 156 135 125 120 114 91 61 28 45 59 102 123 130 129 127 117 118 118 124 122 115 107 91
191 194 223 254 358 34 21 325 313 294 250 230 224 210 205 204 197 188 175 172 161 169 177 175 171 165 158 135 111 86 62 42 37 26 6 359 93 120 127 135 132 132 136 147 152 148 144 148 87
246 234 203 183 91 312 47 306 300 297 298 251 238 216 212 208 193 186 179 178 181 186 176 168 165 159 149 139 136 136 136 144 192 205 324 8 59 101 125 137 136 142 144 155 169 159 151 141 140
215 92 111 128 136 22 5 208 293 330 299 270 245 223 212 202 191 188 185 184 181 172 167 165 159 155 150 148 147 136 133 148 131 77 60 29 32 72 114 132 136 143 151 162 164 153 153 146 149
135 71 52 47 70 358 269 177 287 269 248 275 262 233 210 196 187 183 173 161 158 155 157 156 156 162 158 156 153 153 156 154 139 131 110 41 24 39 81 124 132 142 146 157 166 161 156 154 144
82 87 36 7 14 264 278 198 255 263 255 246 249 231 202 184 176 171 168 169 169 167 168 164 163 174 174 167 169 170 170 166 174 180 174 171 159 27 214 134 131 136 145 147 142 139 149 156 151
154 136 151 184 226 286 324 247 258 274 291 278 238 193 162 169 177 181 182 179 178 177 174 169 173 181 178 177 181 175 169 169 186 186 178 182 192 204 173 138 123 119 123 127 125 119 136 134 146
135 151 157 130 150 296 291 293 302 304 355 15 32 70 159 180 183 187 182 181 180 179 181 179 177 181 184 184 174 172 177 178 181 173 165 167 182 167 135 127 125 117 118 127 125 113 118 117 119
134 142 105 116 146 257 296 286 266 289 300 338 343 239 223 191 188 187 184 184 184 182 178 175 175 181 182 179 179 179 184 181 168 148 158 170 162 132 127 126 129 120 117 120 117 109 111 110 106
92 99 110 122 150 158 258 274 237 240 251 254 253 238 207 195 197 194 189 186 176 168 168 174 176 171 175 180 174 168 179 167 151 156 170 171 154 146 144 143 141 136 128 120 121 125 117 109 98
146 157 142 149 206 174 180 267 278 260 264 258 265 259 227 202 195 182 171 162 163 170 174 178 180 180 184 178 166 169 168 153 157 173 178 166 168 172 162 147 145 142 134 132 139 140 133 134 135